{"data":{"norad_id":49138,"intl_designator":"2021-082J","name":"STARLINK-3058","alt_names":[],"object_type":"PAYLOAD","status":"ACTIVE","operator":null,"country":"US","launch_date":"2021-09-14","launch_site_code":"AFWTR","launch_vehicle":null,"mission":null,"orbit_class":"UNKNOWN","rcs_meters":null,"size_class":null,"mass_kg":null,"dimensions":null,"purposes":["comms"],"wikipedia_slug":null,"has_3d_model":false,"image_url":null,"decayed_at":null,"tle_current":{"epoch":"2026-09-20T04:27:29.016000Z","epoch_age_seconds":68467,"freshness":"FRESH","line1":"1 49138U 21082J   26263.18575250  .00000229  00000+0  26999-4 0  9991","line2":"2 49138  69.9996 164.0688 0002914 270.3699  89.7126 14.98328820275114","mean_motion":14.9832882,"eccentricity":0.0002914,"inclination_deg":69.9996,"raan_deg":164.0688,"arg_perigee_deg":270.3699,"mean_anomaly_deg":89.7126,"bstar":2.6999e-5,"rev_number":27511,"period_min":96.107074814192,"perigee_km":570.03425272772,"apogee_km":574.08482727123,"semimajor_km":6950.1965399995,"source":"CELESTRAK","updated_at":"2026-09-20T09:00:39.247854Z"}}}